Regional Weather Roundup
Issued by NWS

Home | Current Version | Previous Version | Graphics & Text | Print | Product List | Glossary On
Versions: 1 2 3 4 5 6 7 8 9 10 11 12 13 14 15 16 17 18 19 20 21 22 23 24 25 26 27 28 29 30 31
000
ASUS45 KBOU 291307
RWRCO

WEATHER ROUNDUP FOR COLORADO
NATIONAL WEATHER SERVICE DENVER/BOULDER CO
700 AM MDT WED OCT 29 2014

NOTE: "FAIR" INDICATES FEW OR NO CLOUDS BELOW 12000 FEET WITH NO
SIGNIFICANT WEATHER AND/OR OBSTRUCTIONS TO VISIBILITY.

COZ001>005-013-030-031-291400-
...NORTHWEST COLORADO...

CITY           SKY/WX    TMP DP  RH WIND       PRES   REMARKS
CRAIG          PTCLDY    22  17  81 SW5       30.33R WCI  16
HAYDEN         CLEAR     27  18  69 SE13      30.32S WCI  16
MEEKER         CLEAR     25  19  78 E5        30.33R WCI  19
MOUNT WERNER   NOT AVBL
STEAMBOAT SPGS CLEAR     23  18  81 CALM      30.34S
WALDEN         CLEAR     21  12  68 SE6       30.31S WCI  14
$$

COZ006>008-011-291400-
...WEST CENTRAL VALLEYS...

CITY           SKY/WX    TMP DP  RH WIND       PRES   REMARKS
GRAND JUNCTION PTCLDY    31  15  52 E3        30.31R
MONTROSE       CLEAR     28  16  60 S6        30.35F WCI  22
EAGLE          CLEAR     19  14  79 CALM      30.41R
RIFLE          PTCLDY    24  14  65 SW5       30.35R WCI  18
DELTA          CLEAR     32  17  52 SE3       30.35S
NUCLA          CLEAR     32  10  40 E9        30.37S WCI  24
$$

COZ017>023-064>068-291400-
...SOUTHWEST COLORADO...

CITY           SKY/WX    TMP DP  RH WIND       PRES   REMARKS
DURANGO        CLEAR     26  19  74 NE5       30.32R WCI  20
CORTEZ         CLEAR     24  15  68 E3        30.32R
PAGOSA SPRINGS CLEAR     29  15  56 CALM      30.36R
TELLURIDE      CLEAR     34  15  45 E6        30.43R WCI  29
WOLF CREEK PAS PTCLDY    32   1  27 W3        30.48R
$$

COZ009-010-012-014-032>034-037-058>063-291400-
...CENTRAL COLORADO...

CITY           SKY/WX    TMP DP  RH WIND       PRES   REMARKS
ASPEN          CLEAR     23  14  68 S5        30.35S WCI  17
BUENA VISTA    CLEAR     31   5  33 CALM      30.33R
COPPER MTN     PTCLDY    28   3  34 W12G17    30.44S WCI  18
BERTHOUD PASS  FAIR      23  19  86 NW28G36   30.42R WCI   6
COTTONWOOD PAS CLEAR     41   3  20 NW8       30.36S
GUNNISON       CLEAR     16   3  57 CALM      30.44S
KREMMLING      CLEAR     18  14  86 CALM        N/A
LEADVILLE      PTCLDY    26   9  48 NE8       30.37S WCI  18
MONARCH PASS   CLEAR     27   3  36 W37       30.53R WCI   9
SALIDA         CLEAR     30   7  37 CALM      30.40R
SUNLIGHT       CLEAR     32   9  37 SW3       30.44S
WILKERSON PASS NOT AVBL
$$

COZ069>075-291400-
...SAN LUIS VALLEY/SANGRE DE CRISTO MOUNTAINS...

CITY           SKY/WX    TMP DP  RH WIND       PRES   REMARKS
ALAMOSA        MOCLDY    19  11  70 NW3       30.35S
LA VETA PASS   CLEAR     32   5  32 S13G23    30.35S WCI  22
SAGUACHE       PTCLDY    28   3  34 N13       30.37S WCI  18
$$

COZ035-036-038>040-291400-
...NORTHERN COLORADO FRONT RANGE...

CITY           SKY/WX    TMP DP  RH WIND       PRES   REMARKS
DENVER INTL AP PTCLDY    38  18  44 SW6       30.17S
DMNS CITY PARK   N/A     36  21  55 S6        30.18S
AURORA         PTCLDY    37  17  45 S9        30.19S
FRONT RANGE AP PTCLDY    32  23  69 S14       30.18F WCI  22
ERIE MUNI ARPT CLEAR     26  23  87 CALM      30.17S
BOULDER MUN AP CLEAR     34  21  60 CALM      30.17S
CENTENNIAL     CLEAR     34  18  52 SE8       30.19S WCI  27
BROOMFIELD     PTCLDY    39  23  52 S5        30.18S
FORT COLLINS   CLEAR     30  25  80 S3        30.18F
LONGMONT       CLEAR     28  22  76 W3        30.19F
$$

COZ041-046-047-076>085-087-088-291400-
...PIKES PEAK/PALMER DIVIDE AND SOUTHERN FOOTHILLS...

CITY           SKY/WX    TMP DP  RH WIND       PRES   REMARKS
COLO. SPRINGS  CLEAR     35  16  45 N7        30.23S WCI  29
A. F. ACADEMY  CLEAR     27  14  59 N7        30.23S WCI  19
ELLICOTT       NOT AVBL
FALCON         CLEAR     36  12  36 NW7       30.24S
FORT CARSON    CLEAR     33  19  58 N9        30.20S WCI  25
LIMON          PTCLDY    22  18  85 CALM      30.20S
MONUMENT HILL  CLEAR     32  14  47 SW10      30.23S WCI  24
TRINIDAD       CLEAR     37  21  52 W8        30.22S
$$

COZ042>045-048>051-090-091-291400-
...NORTHEAST COLORADO...

CITY           SKY/WX    TMP DP  RH WIND       PRES   REMARKS
GREELEY ARPT   CLEAR     23  12  63 CALM      30.19S
AKRON          PTCLDY    34  24  67 W9        30.15F WCI  27
BURLINGTON     CLEAR     30  24  78 W9        30.17S WCI  22
WRAY           CLEAR     26  22  85 SW5       30.16S WCI  20
STERLING       PTCLDY    27  23  86 SW6       30.16S WCI  20
HOLYOKE        CLEAR     28  21  74 W6        30.15S WCI  22
FORT MORGAN    PTCLDY    25  21  83 W9        30.17S WCI  16
$$

COZ086-089-092>099-291400-
...SOUTHEAST COLORADO...

CITY           SKY/WX    TMP DP  RH WIND       PRES   REMARKS
PUEBLO         CLEAR     28  20  71 CALM      30.20S
LA JUNTA       CLEAR     34  24  67 W6        30.20R WCI  29
LAMAR          CLEAR     28  25  88 W6        30.18R WCI  22
SPRINGFIELD      N/A     33  28  81 W7        30.19S WCI  27
$$



USA.gov is the U.S. government's official web portal to all federal, state and local government web resources and services.